Japanese version Home page |
Updated on March 19, 2021 |
Profile
|
Orbital ElementsEpoch 2010 Mar. 25.0 TT = JDT 2455280.5 T 2010 Mar. 12.40925 TT Rudenko q 1.7914342 (2000.0) P Q n 0.18646171 Peri. 27.13451 -0.20165515 -0.96107765 a 3.0344240 Node 74.99706 +0.85943160 -0.26610701 e 0.4096296 Incl. 11.27489 +0.46980051 +0.07427518 P 5.29 From 80 observations 2005 Feb. 9-2021 Mar. 12, mean residual 0".7.
|
Magnitudes Graphm1 = 16.5 + 5 log d + 10.0 log r
|
The orbital elements are published on M.P.E.C. 2021-F20.
|